SCP
0 0 0 0 0 0 0 0 0 0 0 0 0 0 0 0 0 0 0 0 0 0 0 0 0 0 0 0 0 0 0 0 0 0 0 0 0 0 0 0 0 0 0
0 0 0 0 0 0 0 0 0 0 0 0 0 0 0 0 0 0 0 0 0 0 0 0 0 0 0 0 0 0 0 0 0 0 0 0 0 0 0 0 0 0 0
0 0 0 0 0 0 0 0 0 0 0 0 0 0 0 0 0 0 0 0 0 0 1 1 0 0 0 0 0 0 0 0 0 0 0 0 0 0 0 0 0 0 0
0 0 0 0 0 0 0 0 0 0 0 0 0 0 0 0 0 0 0 0 0 0 0 1 1 0 0 0 0 0 0 0 0 0 0 0 0 0 0 0 0 0 0
0 0 0 0 0 0 0 0 0 0 0 0 0 0 0 0 0 0 0 0 0 0 0 1 1 1 0 0 0 0 0 0 0 0 0 0 0 0 0 0 0 0 0
0 0 0 0 0 0 0 0 0 0 0 0 0 0 0 0 0 0 0 0 0 0 0 0 1 1 1 1 0 0 0 0 0 0 0 0 0 0 0 0 0 0 0
0 0 0 0 0 0 0 0 0 0 0 0 0 0 0 0 0 0 0 0 0 0 0 0 0 1 1 1 0 0 0 0 0 0 0 0 0 0 0 0 0 0 0
0 0 0 0 0 0 0 1 1 0 0 0 0 0 0 0 0 0 0 0 0 0 0 0 0 1 1 0 0 0 0 0 0 0 0 0 0 0 0 0 0 0 0
0 0 0 0 1 1 1 1 1 1 0 0 0 0 0 0 0 0 0 0 0 0 0 0 0 0 1 1 0 0 0 0 0 0 0 0 0 0 0 0 0 0 0
1 1 1 1 1 1 1 1 1 1 0 0 0 0 0 0 0 0 0 0 0 0 0 0 0 0 0 1 1 0 0 0 0 0 0 0 0 0 0 0 0 0 0
1 1 1 1 1 1 1 1 1 0 0 0 0 0 0 0 0 0 0 0 0 0 0 0 0 0 0 0 0 0 0 0 0 0 0 0 0 0 0 0 0 0 0
1 1 1 1 1 1 1 1 1 1 0 0 0 0 0 0 0 0 0 0 0 0 0 0 0 0 0 0 0 0 0 0 0 0 0 0 0 0 0 0 0 0 0
1 1 1 1 1 1 1 1 1 1 1 1 0 0 0 0 0 0 0 0 0 0 0 0 0 0 0 0 0 0 0 0 0 0 0 0 0 0 0 0 0 0 0
1 1 1 1 1 1 1 1 1 1 1 1 0 0 0 0 0 0 0 0 0 0 0 0 0 0 0 0 0 0 0 0 0 0 0 0 0 0 0 0 0 0 0
1 1 1 1 1 1 1 1 1 1 1 1 1 1 0 0 0 0 0 0 0 0 0 0 0 0 0 0 0 0 0 0 0 0 0 0 0 0 0 0 0 0 0
1 1 1 1 1 1 1 1 1 1 1 1 1 1 1 1 0 0 0 0 0 0 0 0 0 0 0 0 0 0 0 0 0 0 0 0 0 0 0 0 0 0 0
1 1 1 1 1 1 1 1 1 1 1 1 1 1 1 1 1 1 0 0 0 0 0 0 0 0 0 0 0 0 0 0 0 0 0 0 0 0 0 0 0 0 0
1 1 1 1 1 1 1 1 1 1 1 1 1 1 1 1 1 1 1 0 0 0 0 0 0 0 0 0 1 1 0 0 0 0 0 0 0 0 0 0 0 0 0
1 1 1 1 1 1 1 1 1 1 1 1 1 1 1 1 1 1 1 0 0 0 0 0 0 0 0 0 1 1 0 0 0 0 0 0 0 0 0 0 0 0 0
1 1 1 1 1 1 1 1 1 1 1 1 1 1 1 1 1 1 0 0 0 0 0 0 0 0 0 0 0 0 0 0 0 0 0 0 0 0 0 0 0 0 0
1 1 1 1 1 1 1 1 1 1 1 1 1 1 1 1 1 0 0 0 0 0 1 1 0 0 0 0 0 0 0 0 0 0 0 0 0 0 0 0 0 0 0
1 1 1 1 1 1 0 0 1 1 1 1 1 1 1 1 1 0 0 0 0 0 0 0 0 0 0 0 0 0 0 0 0 0 0 0 0 0 0 0 0 0 0
1 1 1 1 1 1 0 0 0 1 1 1 1 1 1 1 1 0 0 0 0 0 0 0 0 0 0 0 0 0 0 0 0 0 0 0 0 0 0 0 0 0 0
1 1 1 1 1 1 0 0 0 0 0 1 1 1 1 1 0 0 0 0 0 0 0 0 0 0 0 0 0 0 0 0 0 0 0 0 0 0 0 0 0 0 0
1 1 1 1 1 1 0 0 0 0 0 0 0 1 1 0 0 0 0 0 0 0 0 0 0 0 0 0 0 0 0 0 0 0 0 0 0 0 0 0 0 0 0
1 1 1 1 1 1 0 0 0 0 0 0 0 0 0 0 0 0 0 0 0 0 0 0 0 0 0 0 0 0 0 0 0 0 0 0 0 0 0 0 0 0 0
Wind_Speed
1 1 1 1 1 1 2 2 2 2 3 4 4 4 3 3 3 3 4 12 12 11 11 11 10 10 10 9 9 8 8 8 8 8 8 8 8 8 8 8 8 8 8
1 0 1 1 1 1 1 2 2 2 2 2 3 3 3 3 4 4 5 8 12 12 11 11 11 11 10 10 10 10 9 8 8 8 8 8 8 8 8 8 8 8 8
1 1 1 2 1 1 1 1 2 1 2 2 2 3 3 3 4 4 4 5 6 11 12 11 11 10 10 10 10 10 9 9 8 8 7 7 7 7 7 7 7 8 8
1 1 2 1 1 1 2 1 1 1 1 1 1 2 2 3 4 5 4 4 4 5 9 12 11 10 11 11 11 11 10 9 9 8 8 7 7 8 7 7 8 8 8
1 2 1 1 2 1 1 2 1 1 1 1 2 2 2 2 2 3 3 4 4 3 4 9 12 11 11 11 11 11 10 10 10 10 9 8 8 8 7 8 8 8 8
1 1 1 1 2 1 1 1 1 2 2 2 3 2 2 2 2 3 3 3 3 4 4 4 6 7 11 10 10 10 10 9 9 9 10 10 10 9 9 9 9 9 9
1 1 2 2 2 1 1 2 1 2 2 1 1 2 2 2 2 2 2 2 3 3 3 4 4 4 4 9 9 9 9 9 9 8 9 9 10 10 10 9 9 9 9
1 1 1 1 1 1 1 1 1 1 2 1 1 1 1 1 1 2 2 3 3 2 2 4 4 4 3 4 6 9 9 9 8 8 8 9 8 8 9 9 9 9 9
0 1 1 1 1 1 2 2 2 2 1 1 1 1 0 1 2 1 2 1 2 1 2 3 4 4 4 4 4 8 9 8 8 8 8 8 8 7 7 8 8 8 8
1 1 0 1 1 1 0 2 1 2 2 2 2 1 1 1 1 1 1 1 1 2 2 2 2 3 3 3 4 7 8 8 8 8 8 8 7 8 8 8 9 9 8
1 1 0 0 1 1 1 1 1 1 1 2 2 1 2 1 2 1 2 1 2 2 2 3 2 2 3 3 4 6 9 9 8 8 7 7 7 7 9 9 9 9 8
1 1 1 0 1 1 1 1 1 2 2 2 2 2 1 1 2 1 2 2 2 2 3 3 3 3 3 3 4 7 9 10 9 8 7 6 6 7 8 8 9 8 8
1 1 1 1 0 1 1 1 2 2 2 2 2 2 2 2 1 1 2 2 2 2 2 2 3 2 3 2 3 7 8 9 9 8 8 7 6 6 7 8 8 8 8
1 1 1 1 1 1 2 1 2 2 1 2 3 2 2 2 2 2 2 2 2 2 2 3 2 3 2 2 4 6 4 7 8 8 8 8 7 7 7 7 7 7 7
1 0 0 0 1 1 2 2 1 2 2 2 2 2 2 2 2 2 2 2 2 3 3 3 2 2 1 1 3 3 3 7 9 9 9 9 8 8 8 7 7 7 7
1 1 1 1 1 1 2 2 2 2 2 2 2 2 2 2 3 3 2 2 2 2 3 2 2 1 1 1 3 3 3 7 9 10 10 10 9 9 8 8 8 8 8
1 1 1 2 2 2 1 2 2 2 2 2 3 2 2 2 2 3 3 2 2 2 3 3 2 1 1 1 1 2 2 3 4 9 10 10 10 9 9 8 8 8 7
2 1 1 2 2 2 2 2 2 2 2 3 3 3 3 3 3 3 3 3 3 2 2 4 3 2 2 2 2 3 3 4 2 6 8 9 10 10 10 9 9 8 8
2 2 2 2 2 2 2 2 2 3 3 3 3 3 3 2 3 3 3 3 3 3 3 3 3 3 2 2 2 3 3 2 3 4 6 7 8 9 9 9 10 9 9
3 2 2 2 2 2 2 2 3 3 3 3 3 3 3 2 2 3 4 3 3 4 4 3 3 3 2 2 1 2 3 2 2 3 2 4 6 8 9 10 10 10 9
3 2 2 2 3 2 2 2 3 4 3 4 3 3 3 3 3 3 3 2 3 3 3 3 3 3 3 2 2 2 3 2 3 2 1 2 3 3 4 7 9 10 10
2 2 2 2 2 2 2 2 3 4 3 3 3 3 4 4 4 4 5 5 4 4 3 3 3 3 4 3 2 3 3 3 3 2 2 3 2 3 3 4 7 9 10
3 3 2 2 2 1 2 2 3 4 4 3 3 3 4 3 2 3 4 6 6 7 6 4 5 5 4 3 3 4 3 4 4 3 3 4 3 3 3 4 7 9 9
3 2 2 2 2 2 2 3 5 4 4 4 4 3 3 3 3 3 4 4 5 5 6 5 5 5 4 3 3 4 5 5 4 4 3 4 3 3 3 2 5 7 8
3 3 3 3 3 3 3 4 4 4 4 4 4 3 2 2 3 4 4 5 5 5 6 7 7 6 6 6 5 3 3 3 4 4 2 3 3 2 2 2 4 7 8
3 4 3 4 4 3 4 4 4 4 4 4 3 3 2 2 3 4 4 5 5 5 5 5 5 5 5 5 6 4 3 3 3 3 2 2 2 2 2 2 2 3 4
Wind_Direction
175 189 221 201 211 193 185 207 224 225 231 228 232 226 213 195 186 168 160 181 185 189 191 194 200 208 212 213 215 213 214 217 218 222 224 227 230 231 229 226 226 224 223
144 184 255 236 225 190 197 202 222 224 226 239 244 241 223 200 185 173 171 184 192 196 198 200 204 210 214 215 215 214 219 222 220 221 224 226 228 230 229 227 224 222 222
165 201 241 235 211 200 201 212 226 222 211 231 245 249 240 217 193 183 183 187 191 199 202 205 208 213 215 216 218 218 219 221 220 221 224 224 223 222 224 226 227 225 224
184 232 246 252 235 219 206 212 235 218 224 247 260 253 248 221 202 192 193 189 188 193 200 205 207 212 215 216 220 220 219 219 221 221 220 221 221 221 223 225 226 226 225
199 243 264 280 269 252 221 240 191 211 242 246 256 242 244 248 213 208 190 194 189 184 182 197 204 210 215 216 220 221 220 220 222 222 221 221 223 221 220 226 227 225 225
225 263 260 248 256 249 249 269 259 237 238 237 266 274 259 254 229 212 196 195 187 190 185 187 189 207 214 217 218 219 219 218 218 223 223 223 224 224 223 227 229 229 227
240 252 289 252 252 239 226 230 239 249 253 240 279 291 278 239 222 208 191 193 200 200 188 178 185 191 197 206 213 215 217 219 219 221 224 225 229 227 225 226 229 229 229
240 249 256 260 258 236 225 241 221 264 275 239 252 280 297 317 298 251 195 194 188 192 191 198 192 191 204 184 198 205 213 217 218 219 221 225 228 229 223 221 223 226 228
209 313 334 303 290 237 198 212 208 233 252 263 236 233 230 244 285 251 241 190 163 190 216 213 200 187 201 194 189 202 208 212 218 224 227 227 225 225 224 220 221 223 229
202 239 269 281 284 289 229 232 195 221 224 248 260 248 241 244 251 271 281 243 221 219 226 238 218 203 202 194 186 183 196 206 216 223 229 231 228 223 222 223 225 226 230
212 239 211 203 234 269 278 290 309 234 235 250 265 267 259 261 257 246 260 266 263 240 232 226 213 214 215 207 186 188 192 199 207 219 227 228 229 227 228 227 230 231 230
186 202 196 207 242 267 273 291 288 255 246 263 269 271 269 260 263 270 271 257 252 249 238 228 213 213 216 204 203 186 191 195 198 208 216 222 226 227 231 232 232 230 230
184 178 179 137 266 280 279 281 258 257 256 257 256 264 269 269 281 287 279 277 287 282 260 245 222 215 225 186 183 178 191 192 200 204 210 215 220 226 229 232 234 233 231
320 90 150 165 217 279 293 292 275 259 264 266 266 262 271 268 269 259 267 291 295 283 268 261 234 222 229 183 183 179 190 196 205 209 213 215 217 221 225 226 228 229 230
283 57 177 197 232 259 276 281 272 274 275 271 272 280 280 275 274 264 254 252 258 280 274 266 269 244 209 165 183 195 183 203 208 210 211 212 214 217 220 221 221 222 224
302 292 264 261 256 253 271 284 279 274 282 273 259 262 274 283 296 286 271 261 256 255 269 274 274 263 307 276 199 214 205 207 213 209 210 210 211 212 215 217 217 218 221
260 263 271 270 265 269 275 266 265 265 267 271 278 276 272 268 278 293 296 283 276 270 274 289 297 307 293 275 253 250 232 219 214 214 213 212 211 211 210 212 211 211 216
254 258 258 270 270 272 272 274 278 283 274 271 269 266 272 282 287 289 295 289 285 278 273 285 288 284 272 241 227 243 256 252 224 214 211 213 214 212 211 210 209 211 215
242 255 261 268 277 282 277 275 275 274 271 268 269 265 262 273 285 286 284 288 291 291 274 272 276 272 268 262 254 259 259 256 255 224 214 215 218 215 212 210 207 210 214
226 231 243 256 265 272 284 290 285 272 273 273 269 269 261 262 279 287 279 284 289 288 281 279 279 274 270 273 279 269 269 258 261 252 237 223 220 216 211 209 210 210 212
239 228 233 246 255 253 283 303 293 277 278 276 275 271 257 245 250 259 277 287 287 281 284 282 285 293 292 292 277 273 277 279 265 254 240 242 222 219 214 214 216 217 216
247 243 244 251 262 278 300 306 301 293 289 282 280 281 266 242 245 254 261 269 272 272 281 277 281 283 286 290 288 285 287 285 282 259 258 264 244 233 228 220 211 212 215
237 230 233 236 241 272 300 305 300 282 281 280 276 271 278 285 271 273 266 264 262 263 260 261 271 275 275 276 274 276 275 272 273 263 253 265 251 244 233 233 210 206 212
247 237 230 232 233 240 245 268 291 266 269 271 268 259 259 279 292 299 281 272 264 263 258 252 254 264 275 266 254 259 265 265 269 262 237 257 255 248 246 226 213 209 211
251 248 234 235 235 231 228 243 270 270 264 264 259 255 251 263 307 310 285 279 275 275 270 269 263 260 263 263 254 260 264 266 273 266 242 248 259 265 249 229 219 212 216
247 250 241 240 237 229 216 227 245 264 268 271 260 239 230 242 268 271 268 273 274 282 291 288 276 265 255 251 244 228 235 254 266 267 244 244 251 262 265 233 211 211 227